User: anonymous
Location: Caltech
(34.1382°N, 118.1253°W)
Time: 08:08:02
(UTC-07:00)
Language:

Cosmos 2237 Rocket - Orbit

View from above orbital plane
View from above orbital plane
View from above satellite
View from above satellite

Ground track
Ground track

The orbit data is extracted from the following two-line orbital elements,

1 22566U 93016B   14294.10790488 -.00000225  00000-0 -91955-4 0  1869
2 22566 071.0074 303.0512 0009795 183.7667 176.3384 14.14861469114051
Epoch (UTC): 21 October 2014 02:35:22
Eccentricity: 0.0009795
inclination: 71.0074°
perigee height: 836 km
apogee height: 850 km
right ascension of ascending node: 303.0512°
argument of perigee: 183.7667°
revolutions per day: 14.14861469
mean anomaly at epoch: 176.3384°
orbit number at epoch: 11405

The dashed part of the orbit path shows where the satellite is in the earth's shadow,  

DLR